User: anonymous   Login
Location: Via Auriletto, 13, 10098 Rivoli TO, Italia
(45.0746°N, 7.5214°E)
Time: 04:14:39
(UTC+01:00)
Language:

SPROUT - Orbit

View from above orbital plane
View from above orbital plane
View from above satellite
View from above satellite

Ground track
Ground track

The orbit data is extracted from the following two-line orbital elements,

1 39770U 14029E   19316.82331482  .00000594  00000-0  71650-4 0  9994
2 39770  97.8916  59.2233 0008447 330.6270  29.4456 14.87498135296700
Epoch (UTC): 12 November 2019 19:45:34
Eccentricity: 0.0008447
inclination: 97.8916°
perigee height: 600 km
apogee height: 611 km
right ascension of ascending node: 59.2233°
argument of perigee: 330.6270°
revolutions per day: 14.87498135
mean anomaly at epoch: 29.4456°
orbit number at epoch: 29670

The dashed part of the orbit path shows where the satellite is in the earth's shadow,  

DLR